Погода в Калиновке

Украина / Винницкая область     48°45′00″N   28°01′35″E
темп.,
°C
ветер,
м/с
пор.,
м/с
влажн.,
%
обл.,
%
осадки,
мм/ч
давл.,
гПа
погр.,
м
16 сентября, чт
чт1600:00+14в2266100 0.0 101916
03:00+12в22706 0.0 101922
06:00+11вюв227213 0.0 101917
09:00+16вюв34538 0.0 1018243
12:00+22ююв334019 0.0 10181208
15:00+24ююв333699 0.0 10161602
18:00+23ююв343951 0.0 1016413
21:00+18юв3450100 0.0 101653
17 сентября, пт
пт1700:00+16юв4104986 0.0 1016162
03:00+16ююв4115282 0.0 1014215
06:00+15ююв5116881 0.0 1012246
09:00+17ю6116596 0.0 1011372
12:00+24ю6741100 0.0 1010921
15:00+24юз6947100 0.0 10081068
18:00+20ююз5968100 0.0 1008665
21:00+17ю238390 0.1 100753
18 сентября, сб
сб1800:00+16ююв3688100 0.4 1006162
03:00+14ююз23945 0.4 100644
06:00+15з5995100 0.3 1006450
09:00+15зсз5990100 0.9 1008650
12:00+16зсз5880100 0.0 1009827
15:00+19сз68545 0.1 10101237
18:00+19зсз464616 0.0 10101594
21:00+13ссз33775 0.0 101231
19 сентября, вс
вс1900:00+11зсз01886 0.0 101210
03:00+13зсз238099 0.0 101287
06:00+12з0189100 0.4 101211
09:00+13ссз118285 0.8 1012240
12:00+16сз447169 1.6 1011575
15:00+18сз555492 1.9 10111307
18:00+12сз697298 0.7 1012524
21:00+8зсз4985100 1.4 1014551
20 сентября, пн
пн2000:00+8зсз5982100 0.1 1013926
03:00+8зсз6983100 0.1 10131051
06:00+7зсз61084100 0.1 1013992
09:00+7зсз71081100 0.1 10131009
12:00+6зсз71084100 0.1 1014942
15:00+6зсз71181100 0.1 1015993
18:00+5сз71289100 0.0 1015912
21:00+5сз71289100 0.1 1016819